Location: Gugi
(45.4667°N, 11.1000°E)
Time: 06:18:17
(UTC+00:00)

Cosmos 2263 Rocket - Pass Details

Date: 29 February 2020
Orbit: 822 x 850 km, 71.0° (Epoch: 07 April)

Event Time Altitude Azimuth Distance (km) Brightness Sun altitude
Rises 20:03:39 0° 339° (NNW) 3,418 6.0 -32.0°
Reaches altitude 10° 20:06:19 10° 348° (NNW) 2,482 5.0 -32.5°
Enters shadow 20:08:50 23° 6° (N) 1,722 3.9 -32.9°
